Location: Dornbirn
(47.4124°N, 9.7438°E)
Time: 05:00:10
(UTC+01:00)

ISS - Visible Passes

Search period start: 01 December 2023 00:00
Search period end: 11 December 2023 00:00
Orbit: 416 x 417 km, 51.6° (Epoch: 30 November)

Date Brightness Start Highest point End Pass type
(mag) Time Alt. Az. Time Alt. Az. Time Alt. Az.
01 Dec -3.9 18:17:19 10° WNW 18:20:41 88° SSW 18:21:31 49° ESE visible
02 Dec -3.8 17:28:53 10° WNW 17:32:14 67° NNE 17:35:26 11° ESE visible
02 Dec -1.7 19:05:54 10° W 19:08:22 26° SW 19:08:22 26° SW visible
03 Dec -2.6 18:17:14 10° WNW 18:20:25 41° SW 18:22:29 19° SSE visible
04 Dec -3.3 17:28:37 10° WNW 17:31:57 64° SSW 17:35:16 10° SE visible
04 Dec -0.6 19:06:53 10° WSW 19:08:08 12° SW 19:09:22 10° SSW visible
05 Dec -1.0 18:17:22 10° W 18:19:46 18° SW 18:22:10 10° S visible
06 Dec -1.6 17:28:22 10° W 17:31:18 28° SW 17:34:14 10° SSE visible
08 Dec -0.4 17:28:45 10° WSW 17:30:18 13° SW 17:31:50 10° SSW visible
